| time (UTC) | temp F | wind direction | speed knots | gust knots | rain 1hr in | rain 24hr in | rain mn in | humidity % | barometer mb |
| 20260503185150 | 56 | 339 | 2.6 | 4.3 | 0.00 | 0.00 | 0.00 | 50 | 1016.0 |
| 20260503184646 | 56 | 345 | 1.7 | 1.7 | 0.00 | 0.00 | 0.00 | 47 | 1016.3 |
| 20260503184142 | 57 | 324 | 2.6 | 4.3 | 0.00 | 0.00 | 0.00 | 49 | 1016.2 |
| 20260503183638 | 57 | 327 | 1.7 | 2.6 | 0.00 | 0.00 | 0.00 | 50 | 1016.5 |
| 20260503183136 | 56 | 317 | 1.7 | 2.6 | 0.00 | 0.00 | 0.00 | 46 | 1016.2 |
| 20260503182634 | 57 | 196 | 6.1 | 9.6 | 0.00 | 0.00 | 0.00 | 52 | 1016.2 |
| 20260503182132 | 56 | 335 | 2.6 | 2.6 | 0.00 | 0.00 | 0.00 | 50 | 1016.5 |
| 20260503181629 | 57 | 146 | 0.9 | 2.6 | 0.00 | 0.00 | 0.00 | 46 | 1016.5 |
| 20260503181126 | 55 | 325 | 1.7 | 2.6 | 0.00 | 0.00 | 0.00 | 47 | 1016.4 |
| 20260503180623 | 56 | 211 | 2.6 | 4.3 | 0.00 | 0.00 | 0.00 | 51 | 1016.8 |
| 20260503180121 | 58 | 298 | 2.6 | 2.6 | 0.00 | 0.00 | 0.00 | 47 | 1016.5 |
| 20260503175617 | 57 | 340 | 1.7 | 2.6 | 0.00 | 0.00 | 0.00 | 51 | 1016.6 |
| 20260503175114 | 57 | 305 | 3.5 | 4.3 | 0.00 | 0.00 | 0.00 | 49 | 1016.8 |
| 20260503174611 | 55 | 332 | 1.7 | 2.6 | 0.00 | 0.00 | 0.00 | 58 | 1016.9 |
| 20260503174108 | 57 | 342 | 3.5 | 4.3 | 0.00 | 0.00 | 0.00 | 45 | 1016.8 |
| 20260503173603 | 57 | 292 | 2.6 | 4.3 | 0.00 | 0.00 | 0.00 | 53 | 1016.9 |
| 20260503173100 | 56 | 332 | 0.9 | 2.6 | 0.00 | 0.00 | 0.00 | 53 | 1017.0 |
| 20260503172557 | 54 | 298 | 0.9 | 1.7 | 0.00 | 0.00 | 0.00 | 48 | 1017.2 |
| 20260503172054 | 56 | 328 | 1.7 | 2.6 | 0.00 | 0.00 | 0.00 | 46 | 1016.8 |
| 20260503171550 | 56 | 335 | 1.7 | 2.6 | 0.00 | 0.00 | 0.00 | 47 | 1017.0 |
| 20260503171048 | 55 | 339 | 0.9 | 2.6 | 0.00 | 0.00 | 0.00 | 49 | 1017.2 |
| 20260503170544 | 55 | 319 | 3.5 | 4.3 | 0.00 | 0.00 | 0.00 | 53 | 1017.0 |
| 20260503150931 | 50 | 303 | 1.7 | 2.6 | 0.00 | 0.00 | 0.00 | 50 | 1018.0 |
| 20260503150427 | 50 | 331 | 2.6 | 2.6 | 0.00 | 0.00 | 0.00 | 52 | 1018.0 |
| 20260503131320 | 43 | 342 | 1.7 | 2.6 | 0.00 | 0.00 | 0.00 | 78 | 1018.7 |
| 20260503130817 | 42 | 357 | 0.0 | 0.0 | 0.00 | 0.00 | 0.00 | 79 | 1018.7 |
| 20260503130309 | 41 | 323 | 0.9 | 1.7 | 0.00 | 0.00 | 0.00 | 80 | 1018.5 |
| 20260503110703 | 33 | 359 | 0.0 | 0.0 | 0.00 | 0.00 | 0.00 | 99 | 1017.7 |
| 20260503110200 | 32 | 359 | 0.0 | 0.0 | 0.00 | 0.00 | 0.00 | 99 | 1017.5 |
| 20260503100126 | 28 | 351 | 0.0 | 0.0 | 0.00 | 0.00 | 0.00 | 99 | 1017.3 |
| 20260503081510 | 30 | 350 | 0.0 | 0.0 | 0.00 | 0.00 | 0.00 | 99 | 1017.2 |
| 20260503081007 | 30 | 350 | 0.0 | 0.0 | 0.00 | 0.00 | 0.00 | 99 | 1017.1 |
| 20260503080503 | 30 | 350 | 0.0 | 0.0 | 0.00 | 0.00 | 0.00 | 99 | 1017.1 |
| 20260503072939 | 31 | 349 | 0.0 | 0.0 | 0.00 | 0.00 | 0.00 | 97 | 1017.1 |
| 20260503072431 | 31 | 349 | 0.0 | 0.0 | 0.00 | 0.00 | 0.00 | 97 | 1017.0 |
| 20260503071928 | 32 | 349 | 0.0 | 0.0 | 0.00 | 0.00 | 0.00 | 97 | 1017.0 |
| 20260503071425 | 32 | 349 | 0.0 | 0.0 | 0.00 | 0.00 | 0.00 | 97 | 1017.1 |
| 20260503070921 | 32 | 349 | 0.0 | 0.0 | 0.00 | 0.00 | 0.00 | 97 | 1017.1 |
| 20260503070418 | 32 | 349 | 0.0 | 0.0 | 0.00 | 0.00 | 0.00 | 96 | 1017.4 |
| 20260503060338 | 35 | 352 | 0.0 | 0.0 | 0.00 | 0.00 | 0.00 | 95 | 1017.5 |
| 20260503054826 | 35 | 347 | 0.0 | 0.0 | 0.00 | 0.00 | 0.00 | 94 | 1017.4 |
| 20260503054321 | 35 | 347 | 0.0 | 0.0 | 0.00 | 0.00 | 0.00 | 94 | 1017.5 |
| 20260503053819 | 35 | 343 | 0.0 | 0.0 | 0.00 | 0.00 | 0.00 | 94 | 1017.6 |
| 20260503053317 | 35 | 343 | 0.0 | 0.0 | 0.00 | 0.00 | 0.00 | 94 | 1017.5 |
| 20260503052813 | 35 | 343 | 0.0 | 0.0 | 0.00 | 0.00 | 0.00 | 94 | 1017.4 |
| 20260503052311 | 35 | 344 | 0.0 | 0.0 | 0.00 | 0.00 | 0.00 | 93 | 1017.6 |
| 20260503051806 | 35 | 344 | 0.0 | 0.0 | 0.00 | 0.00 | 0.00 | 93 | 1017.5 |
| 20260503051303 | 35 | 343 | 0.0 | 0.0 | 0.00 | 0.00 | 0.00 | 93 | 1017.5 |
| 20260503050800 | 35 | 343 | 0.0 | 0.0 | 0.00 | 0.00 | 0.00 | 93 | 1017.5 |
| 20260503050256 | 35 | 343 | 0.0 | 0.0 | 0.00 | 0.00 | 0.00 | 93 | 1017.6 |
| 20260503045754 | 35 | 343 | 0.0 | 0.0 | 0.00 | 0.00 | 0.00 | 93 | 1017.5 |
| 20260503045252 | 35 | 343 | 0.0 | 0.0 | 0.00 | 0.00 | 0.00 | 93 | 1017.7 |
| 20260503044747 | 35 | 343 | 0.0 | 0.0 | 0.00 | 0.00 | 0.00 | 93 | 1017.6 |
| 20260503044245 | 35 | 343 | 0.0 | 0.0 | 0.00 | 0.00 | 0.00 | 93 | 1017.5 |
| 20260503043742 | 35 | 343 | 0.0 | 0.0 | 0.00 | 0.00 | 0.00 | 92 | 1017.8 |
| 20260503043239 | 35 | 343 | 0.0 | 0.0 | 0.00 | 0.00 | 0.00 | 92 | 1017.6 |
| 20260503042735 | 35 | 343 | 0.0 | 0.0 | 0.00 | 0.00 | 0.00 | 92 | 1017.7 |
| 20260503042232 | 35 | 343 | 0.0 | 0.0 | 0.00 | 0.00 | 0.00 | 92 | 1017.6 |
| 20260503041727 | 35 | 343 | 0.0 | 0.0 | 0.00 | 0.00 | 0.00 | 91 | 1017.6 |
| 20260503041225 | 35 | 343 | 0.0 | 0.0 | 0.00 | 0.00 | 0.00 | 92 | 1017.6 |
| 20260503040723 | 35 | 343 | 0.0 | 0.0 | 0.00 | 0.00 | 0.00 | 92 | 1017.7 |
| 20260503040220 | 35 | 343 | 0.0 | 0.0 | 0.00 | 0.00 | 0.00 | 92 | 1017.7 |
| 20260503035717 | 35 | 343 | 0.0 | 0.0 | 0.00 | 0.02 | 0.02 | 92 | 1017.7 |
| 20260503035215 | 35 | 343 | 0.0 | 0.0 | 0.00 | 0.02 | 0.02 | 91 | 1017.6 |
| 20260503034712 | 35 | 343 | 0.0 | 0.0 | 0.00 | 0.02 | 0.02 | 91 | 1017.7 |
| 20260503034209 | 35 | 347 | 0.0 | 0.0 | 0.00 | 0.02 | 0.02 | 91 | 1017.7 |
| 20260503033706 | 35 | 347 | 0.0 | 0.0 | 0.00 | 0.02 | 0.02 | 91 | 1017.8 |
| 20260503033203 | 35 | 347 | 0.0 | 0.0 | 0.00 | 0.02 | 0.02 | 91 | 1017.7 |
| 20260503032701 | 35 | 347 | 0.0 | 0.0 | 0.00 | 0.02 | 0.02 | 91 | 1017.6 |
| 20260503032200 | 35 | 347 | 0.0 | 0.0 | 0.00 | 0.02 | 0.02 | 90 | 1017.7 |
| 20260503031656 | 35 | 347 | 0.0 | 0.0 | 0.00 | 0.02 | 0.02 | 90 | 1017.7 |
| 20260503031155 | 36 | 347 | 0.0 | 0.0 | 0.00 | 0.02 | 0.02 | 90 | 1017.7 |
| 20260503030650 | 36 | 348 | 0.0 | 0.0 | 0.00 | 0.02 | 0.02 | 91 | 1017.7 |
| 20260503030147 | 36 | 349 | 0.0 | 0.0 | 0.00 | 0.02 | 0.02 | 91 | 1017.8 |
| 20260503025644 | 36 | 351 | 0.0 | 0.0 | 0.00 | 0.02 | 0.02 | 91 | 1017.7 |
| 20260503025142 | 36 | 352 | 0.0 | 0.0 | 0.00 | 0.02 | 0.02 | 90 | 1017.7 |
| 20260503024638 | 36 | 347 | 0.0 | 0.0 | 0.00 | 0.02 | 0.02 | 88 | 1017.8 |
| 20260503024136 | 37 | 347 | 0.0 | 0.0 | 0.00 | 0.02 | 0.02 | 88 | 1017.8 |
| 20260503023632 | 37 | 347 | 0.0 | 0.0 | 0.00 | 0.02 | 0.02 | 87 | 1018.0 |
| 20260503023129 | 37 | 347 | 0.0 | 0.0 | 0.00 | 0.02 | 0.02 | 88 | 1018.1 |
| 20260503022625 | 37 | 347 | 0.0 | 0.0 | 0.00 | 0.02 | 0.02 | 88 | 1017.9 |
| 20260503022120 | 37 | 347 | 0.0 | 0.0 | 0.00 | 0.02 | 0.02 | 88 | 1018.1 |
| 20260503021617 | 37 | 347 | 0.0 | 0.0 | 0.00 | 0.02 | 0.02 | 88 | 1018.0 |
| 20260503021114 | 37 | 347 | 0.0 | 0.0 | 0.00 | 0.02 | 0.02 | 88 | 1017.8 |
| 20260503020611 | 37 | 347 | 0.0 | 0.0 | 0.00 | 0.02 | 0.02 | 89 | 1017.9 |
| 20260503020108 | 37 | 347 | 0.0 | 0.0 | 0.00 | 0.02 | 0.02 | 91 | 1017.9 |
| 20260503015605 | 37 | 347 | 0.0 | 0.0 | 0.00 | 0.02 | 0.02 | 90 | 1017.9 |
| 20260503015102 | 37 | 347 | 0.0 | 0.0 | 0.00 | 0.02 | 0.02 | 90 | 1017.9 |
| 20260503014557 | 37 | 347 | 0.0 | 0.0 | 0.00 | 0.02 | 0.02 | 90 | 1017.7 |
| 20260503014055 | 37 | 347 | 0.0 | 0.0 | 0.00 | 0.02 | 0.02 | 90 | 1017.7 |
| 20260503013553 | 37 | 347 | 0.0 | 0.0 | 0.00 | 0.02 | 0.02 | 90 | 1017.7 |
| 20260503013050 | 37 | 347 | 0.0 | 0.0 | 0.00 | 0.02 | 0.02 | 90 | 1017.9 |
| 20260503012548 | 37 | 347 | 0.0 | 0.0 | 0.00 | 0.02 | 0.02 | 90 | 1017.7 |
| 20260503012044 | 37 | 347 | 0.0 | 0.0 | 0.00 | 0.02 | 0.02 | 89 | 1017.7 |
| 20260503011540 | 37 | 347 | 0.0 | 0.0 | 0.00 | 0.02 | 0.02 | 88 | 1017.9 |
| 20260503011038 | 37 | 347 | 0.0 | 0.0 | 0.00 | 0.02 | 0.02 | 87 | 1017.6 |
| 20260503010534 | 37 | 347 | 0.0 | 0.0 | 0.00 | 0.02 | 0.02 | 86 | 1017.8 |
| 20260503010032 | 37 | 347 | 0.0 | 0.0 | 0.00 | 0.02 | 0.02 | 86 | 1017.8 |
| 20260503005529 | 38 | 347 | 0.0 | 0.0 | 0.00 | 0.02 | 0.02 | 85 | 1017.6 |
| 20260503005026 | 38 | 347 | 0.0 | 0.0 | 0.00 | 0.02 | 0.02 | 84 | 1017.6 |
| 20260503004522 | 38 | 347 | 0.0 | 0.0 | 0.00 | 0.02 | 0.02 | 85 | 1017.5 |
| 20260503004020 | 38 | 347 | 0.0 | 0.0 | 0.00 | 0.02 | 0.02 | 84 | 1017.3 |
| 20260503003516 | 38 | 347 | 0.0 | 0.0 | 0.00 | 0.02 | 0.02 | 83 | 1017.3 |
| 20260503003014 | 39 | 346 | 0.0 | 0.0 | 0.00 | 0.02 | 0.02 | 83 | 1017.2 |
| 20260503002511 | 39 | 343 | 0.9 | 1.7 | 0.00 | 0.02 | 0.02 | 82 | 1017.4 |
| 20260503002007 | 39 | 343 | 0.0 | 1.7 | 0.00 | 0.02 | 0.02 | 82 | 1017.4 |
| 20260503001504 | 39 | 339 | 0.9 | 1.7 | 0.00 | 0.02 | 0.02 | 81 | 1017.3 |
| 20260503001001 | 39 | 343 | 1.7 | 2.6 | 0.00 | 0.02 | 0.02 | 79 | 1017.4 |
| 20260503000459 | 39 | 343 | 3.5 | 4.3 | 0.00 | 0.02 | 0.02 | 79 | 1017.4 |
| 20260502235956 | 39 | 337 | 1.7 | 1.7 | 0.00 | 0.02 | 0.02 | 78 | 1017.1 |
| 20260502235452 | 40 | 336 | 2.6 | 4.3 | 0.00 | 0.02 | 0.02 | 77 | 1017.4 |
| 20260502234950 | 40 | 347 | 1.7 | 2.6 | 0.00 | 0.02 | 0.02 | 77 | 1017.5 |
| 20260502234446 | 40 | 341 | 1.7 | 2.6 | 0.00 | 0.02 | 0.02 | 79 | 1017.2 |
| 20260502233944 | 40 | 344 | 1.7 | 1.7 | 0.00 | 0.02 | 0.02 | 80 | 1017.0 |
| 20260502233438 | 40 | 347 | 1.7 | 1.7 | 0.00 | 0.02 | 0.02 | 80 | 1017.1 |
| 20260502232936 | 40 | 347 | 0.9 | 1.7 | 0.00 | 0.02 | 0.02 | 80 | 1017.2 |
| 20260502232432 | 40 | 343 | 0.9 | 1.7 | 0.00 | 0.02 | 0.02 | 79 | 1017.2 |
| 20260502231929 | 40 | 344 | 0.9 | 1.7 | 0.00 | 0.02 | 0.02 | 78 | 1017.1 |
| 20260502231426 | 40 | 338 | 0.9 | 1.7 | 0.00 | 0.02 | 0.02 | 79 | 1017.1 |
| 20260502230925 | 40 | 339 | 0.9 | 1.7 | 0.00 | 0.02 | 0.02 | 77 | 1017.0 |
| 20260502230422 | 40 | 334 | 1.7 | 2.6 | 0.00 | 0.02 | 0.02 | 77 | 1017.0 |
| 20260502225920 | 40 | 339 | 3.5 | 4.3 | 0.00 | 0.02 | 0.02 | 76 | 1017.4 |
| 20260502225416 | 41 | 331 | 2.6 | 2.6 | 0.00 | 0.02 | 0.02 | 78 | 1017.1 |
| 20260502224913 | 41 | 342 | 1.7 | 1.7 | 0.00 | 0.02 | 0.02 | 75 | 1017.0 |
| 20260502224409 | 41 | 343 | 3.5 | 4.3 | 0.00 | 0.02 | 0.02 | 74 | 1017.1 |
| 20260502223906 | 41 | 334 | 2.6 | 2.6 | 0.00 | 0.02 | 0.02 | 75 | 1016.9 |
| 20260502223404 | 41 | 348 | 1.7 | 2.6 | 0.00 | 0.02 | 0.02 | 77 | 1016.9 |
| 20260502222902 | 41 | 342 | 1.7 | 2.6 | 0.00 | 0.02 | 0.02 | 76 | 1016.9 |
| 20260502222359 | 41 | 345 | 0.9 | 1.7 | 0.00 | 0.02 | 0.02 | 76 | 1017.0 |
| 20260502221854 | 41 | 341 | 1.7 | 1.7 | 0.00 | 0.02 | 0.02 | 78 | 1016.9 |
| 20260502221351 | 41 | 335 | 0.9 | 1.7 | 0.00 | 0.02 | 0.02 | 77 | 1017.0 |
| 20260502220848 | 41 | 332 | 1.7 | 2.6 | 0.00 | 0.02 | 0.02 | 77 | 1016.9 |
| 20260502220344 | 41 | 345 | 3.5 | 4.3 | 0.00 | 0.02 | 0.02 | 77 | 1016.7 |
| 20260502215841 | 41 | 340 | 1.7 | 2.6 | 0.00 | 0.02 | 0.02 | 76 | 1016.9 |
| 20260502215338 | 41 | 343 | 1.7 | 2.6 | 0.00 | 0.02 | 0.02 | 77 | 1017.0 |
| 20260502214835 | 41 | 347 | 1.7 | 2.6 | 0.00 | 0.02 | 0.02 | 77 | 1017.1 |
| 20260502214331 | 41 | 344 | 2.6 | 2.6 | 0.00 | 0.02 | 0.02 | 75 | 1016.9 |
| 20260502213829 | 41 | 328 | 1.7 | 2.6 | 0.00 | 0.02 | 0.02 | 77 | 1016.9 |
| 20260502213326 | 42 | 327 | 0.9 | 1.7 | 0.00 | 0.02 | 0.02 | 77 | 1016.9 |
| 20260502212820 | 42 | 347 | 1.7 | 2.6 | 0.00 | 0.02 | 0.02 | 77 | 1016.8 |
| 20260502212317 | 42 | 347 | 0.0 | 1.7 | 0.00 | 0.02 | 0.02 | 77 | 1016.7 |
| 20260502211814 | 42 | 330 | 1.7 | 2.6 | 0.00 | 0.02 | 0.02 | 76 | 1016.7 |
| 20260502211309 | 42 | 334 | 2.6 | 4.3 | 0.00 | 0.02 | 0.02 | 75 | 1016.5 |
| 20260502210807 | 41 | 351 | 0.9 | 1.7 | 0.00 | 0.02 | 0.02 | 75 | 1016.9 |
| 20260502210305 | 41 | 355 | 0.9 | 1.7 | 0.00 | 0.02 | 0.02 | 76 | 1016.7 |
| 20260502205802 | 41 | 339 | 1.7 | 2.6 | 0.00 | 0.02 | 0.02 | 78 | 1016.6 |
| 20260502205257 | 41 | 352 | 2.6 | 4.3 | 0.00 | 0.02 | 0.02 | 80 | 1016.7 |
| 20260502204755 | 41 | 342 | 3.5 | 4.3 | 0.00 | 0.02 | 0.02 | 81 | 1016.6 |
| 20260502204252 | 42 | 33 | 3.5 | 4.3 | 0.00 | 0.02 | 0.02 | 82 | 1016.7 |
| 20260502203749 | 42 | 356 | 4.3 | 7.0 | 0.00 | 0.02 | 0.02 | 81 | 1016.5 |
| 20260502203242 | 42 | 345 | 2.6 | 4.3 | 0.00 | 0.02 | 0.02 | 80 | 1016.6 |
| 20260502202736 | 42 | 345 | 2.6 | 4.3 | 0.00 | 0.02 | 0.02 | 80 | 1016.7 |
| 20260502202235 | 42 | 342 | 4.3 | 5.2 | 0.00 | 0.02 | 0.02 | 78 | 1016.7 |
| 20260502201731 | 43 | 323 | 3.5 | 5.2 | 0.00 | 0.02 | 0.02 | 79 | 1016.8 |
| 20260502201228 | 43 | 339 | 1.7 | 2.6 | 0.00 | 0.02 | 0.02 | 77 | 1016.9 |
| 20260502200724 | 42 | 334 | 1.7 | 2.6 | 0.00 | 0.02 | 0.02 | 77 | 1016.7 |
| 20260502200220 | 42 | 342 | 1.7 | 2.6 | 0.00 | 0.02 | 0.02 | 80 | 1016.9 |
| 20260502195719 | 42 | 348 | 1.7 | 1.7 | 0.00 | 0.02 | 0.02 | 79 | 1017.0 |
| 20260502195215 | 41 | 6 | 0.9 | 1.7 | 0.00 | 0.02 | 0.02 | 80 | 1016.8 |
| 20260502194712 | 40 | 355 | 1.7 | 1.7 | 0.00 | 0.02 | 0.02 | 80 | 1016.8 |
| 20260502194209 | 40 | 335 | 0.9 | 1.7 | 0.00 | 0.02 | 0.02 | 84 | 1016.9 |
| 20260502193705 | 40 | 341 | 4.3 | 5.2 | 0.00 | 0.02 | 0.02 | 85 | 1017.1 |
| 20260502193202 | 40 | 342 | 2.6 | 4.3 | 0.00 | 0.02 | 0.02 | 86 | 1017.0 |
| 20260502192657 | 41 | 351 | 3.5 | 4.3 | 0.00 | 0.02 | 0.02 | 84 | 1017.2 |
| 20260502192155 | 41 | 336 | 2.6 | 4.3 | 0.00 | 0.02 | 0.02 | 84 | 1017.0 |
| 20260502191651 | 41 | 337 | 3.5 | 4.3 | 0.00 | 0.02 | 0.02 | 82 | 1017.1 |
| 20260502191143 | 42 | 339 | 4.3 | 5.2 | 0.00 | 0.02 | 0.02 | 82 | 1017.0 |
| 20260502190640 | 42 | 338 | 1.7 | 1.7 | 0.00 | 0.02 | 0.02 | 81 | 1017.2 |
| 20260502190133 | 42 | 347 | 4.3 | 5.2 | 0.00 | 0.02 | 0.02 | 82 | 1017.0 |
| 20260502185632 | 42 | 345 | 0.0 | 1.7 | 0.00 | 0.02 | 0.02 | 85 | 1017.4 |